Погода в Большевике

Россия / Московская область     54°54′12″N   37°21′39″E
темп.,
°C
ветер,
м/с
пор.,
м/с
влажн.,
%
обл.,
%
осадки,
мм/ч
давл.,
гПа
погр.,
м
20 апреля, вт
вт2000:00+3всв51196100 0.6 1022697
03:00+2всв51296100 1.5 1021613
06:00+3всв51190100 0.1 1021589
09:00+5в51180100 0.1 1020632
12:00+5в61090100 0.0 1019777
15:00+3всв51196100 0.2 1018587
18:00+2всв41297100 0.4 1015576
21:00+2в41197100 0.8 1013601
21 апреля, ср
ср2100:00+2всв41197100 1.2 1009577
03:00+1св3998100 4.4 1005368
06:00+1ссз25100100 3.0 1003205
09:00+2з23100100 4.1 1003190
12:00+3зюз4793100 0.1 1004712
15:00+4зюз4893100 0.2 1007850
18:00+4юз3892100 0.1 1009601
21:00+4юз3895100 0.1 1011343
22 апреля, чт
чт2200:00+4ю3797100 0.1 1012209
03:00+3ююз3897100 0.2 1013213
06:00+3ююз3897100 0.0 1014236
09:00+7ююз468335 0.0 1015586
12:00+10ююз466542 0.4 10151364
15:00+10юз467111 0.8 10151012
18:00+10ююз387673 0.2 1015684
21:00+8ююв399017 0.2 1016237
23 апреля, пт
пт2300:00+7ююв3119442 0.0 1015286
03:00+6ююв399634 0.0 1015199
06:00+6ююв3129173 0.0 1015272
09:00+11ю5107618 0.0 1014525
12:00+15ю6126415 0.3 10141658
15:00+15ююз61161100 2.7 10121718
18:00+13ююз51069100 2.3 1012862
21:00+9з1294100 3.9 1012132
24 апреля, сб
сб2400:00+8зюз139699 0.1 1012161
03:00+6з4696100 3.4 1010477
06:00+4зсз3897100 4.7 1011607
09:00+4зсз2594100 5.3 1011565
12:00+7зюз2375100 0.6 1012862
15:00+8з3659100 1.2 10111327
18:00+8з366298 0.3 1011518
21:00+3з22800 0.5 101238